Location: Unspecified
(49.0500°N, 0.0000°E)
Time: 03:25:26
(UTC+00:00)

OTV 5 (USA 277) - Pass Details

Date: 16 June 2019
Orbit: 299 x 335 km, 54.5° (Epoch: 13 July)

Event Time Altitude Azimuth Distance (km) Brightness Sun altitude
Exits shadow 01:23:13 12° 274° (W) 1,147 ? -15.3°
Maximum altitude 01:25:34 38° 342° (NNW) 530 ? -15.2°
Drops below altitude 10° 01:28:13 10° 53° (NE) 1,258 ? -15.0°
Enters shadow 02:23:34 -69° 259° (W) 12,237 ? -10.9°
